"Pseudo-MPEC" for C02AA82

Created 2019 Jan 15 15:18:07 UT using Find_Orb

Click here for an explanation of pseudo-MPECs

 
 Astrometry: 
     C02AA82  C2019 01 11.38662 09 27 48.19 -13 29 04.2    ~1BAI 20.6 GVNEOCPG96
     C02AA82  C2019 01 11.39175 09 27 49.46 -13 28 47.0    ~1BAI 20.9 GVNEOCPG96
     C02AA82  C2019 01 11.39688 09 27 50.68 -13 28 29.7    ~1BAI 21.6 GVNEOCPG96
     C02AA82  C2019 01 11.40203 09 27 51.92 -13 28 11.1    ~1BAI 21.4 GVNEOCPG96
     C02AA82  C2019 01 11.52453 09 28 22.01 -13 21 09.2    ~1BGI       VNEOCPG96
     C02AA82  C2019 01 11.52702 09 28 22.53 -13 21 00.0    ~1BGI       VNEOCPG96
     C02AA82  C2019 01 11.52777 09 28 22.79 -13 20 58.9    ~1BGI 21.3 GVNEOCPG96
     C02AA82  C2019 01 11.53022 09 28 23.41 -13 20 50.9    ~1BGI 21.1 GVNEOCPG96
     C02AA82 |C2019 01 123ia`Irh1w=?8RLY2wlxpAstrometry(vq.%uo#FZjiu*9Gs$D6C7807
     C02AA82 |C2019 01 12R=DOhS.j($G(88q3vd4oiXredacted;_2oM\?'][ZTcC3K3oO[wA807
     C02AA82 KC2019 01 12?VUXBJ,YDgclick%!q_:Lj'usr;iu#m.Ff!D`%PsIr6)MaBlUI6\291
     C02AA82 KC2019 01 12l(5(!r)F2bP,fBoP]kv8:2N_u'VT$H6mIN!o`=yl)VhR,KD(=^nl291
     C02AA82 KC2019 01 12/3EeQH9,qJpl-[`here2`*n$BJt,w'))7=(VHPp/Gp3q@xwd8d3-291
     C02AA82  C2019 01 12.44660 09 32 25.73 -12 30 26.2    ~1CBI       VNEOCPI52
     C02AA82  C2019 01 12.45659 09 32 28.00 -12 29 52.0    ~1CBI 21.9 GVNEOCPI52
     C02AA82 KC2019 01 14sSj(0lX!YPhQl/)forjim(TZx;0By5^r68bUQ(0dXy;JbxnQFP+(474
     C02AA82 KC2019 01 14[bLM%jO4u1D`iCUm_T7Fv)wq)s;?T#k'\60p1A;qd8'Xx[Ni[Ne;474
     C02AA82 KC2019 01 14D_rLAb\8sX-EByLTQ-(@BW`7h$O8+explanation0]D(cfjyX=W?474

Station data:
(291) LPL/Spacewatch II  (N31.961669 W111.599905)  US/Arizona.  Observers J.
   V. Scotti, R. S. McMillan. 1.8-m f/2.7 reflector + CCD.
(474) Mount John Observatory, Lake Tekapo  (S43.987388 E170.464960)  New
   Zealand.  Observers A. C. Gilmore, P. M. Kilmartin. Measurer P. M.
   Kilmartin. 1.0-m f/7.7 reflector + CCD.
(807) Cerro Tololo Observatory, La Serena  (S30.169136 W70.805900)  Chile.
   1.5-m Ritchey-Chrétien.
(G96) Mt. Lemmon Survey  (N32.442754 W110.788720)  US/Arizona.  Observers B.
   M. Africano, E. J. Christensen, G. A. Farneth, D. C. Fuls, A. R. Gibbs, A.
   D. Grauer, H. Groeller, J. A. Johnson, R. A. Kowalski, S. M. Larson, G. J.
   Leonard, R. L. Seaman, F. C. Shelly. 1.5-m reflector + 10K CCD.
(I52) Steward Observatory, Mt. Lemmon Station  (N32.442547 W110.788920)
   US/Arizona.  Observers B. M. Africano, E. J. Christensen, G. A. Farneth,
   D. C. Fuls, A. R. Gibbs, A. D. Grauer, H. Groeller, J. A. Johnson, R. A.
   Kowalski, S. M. Larson, G. J. Leonard, R. L. Seaman, F. C. Shelly. 1.0-m
   reflector + CCD.

Orbital elements:  C02AA82
   Perihelion 2018 Dec 20.729700 +/- 0.00258 TT = 17:30:46 (JD 2458473.229700)
Epoch 2019 Jan 14.0 TT = JDT 2458497.5   Earth MOID: 0.0508   Ma: 0.0140
M   5.99315649 +/- 0.046            (J2000 ecliptic)          AutoNEOCP
n   0.24693376 +/- 0.00193          Peri.  268.17439 +/- 0.07
a   2.51622263 +/- 0.0131           Node   179.30760 +/- 0.07
e   0.5984262 +/- 0.00206           Incl.    2.49759 +/- 0.007
P   3.99                   H 24.8   G  0.15   U  8.5  
q 1.01044902 +/- 8.25e-5    Q 4.02199623 +/- 0.0263
From 18 observations 2019 Jan. 11-14; mean residual 0".47
Residuals in arcseconds: 
190111 G96  .22-  .05-    190111 G96  .31+  .35-    190112 291  .17+  .42+    
190111 G96  .12+  .32-    190111 G96  .39+  .86-    190112 I52  .47-  1.1-    
190111 G96  .25-  .50-    190112 807  .25+  .02-    190112 I52  .72+  .47+    
190111 G96  .40-  .53+    190112 807  .44-  .32+    190114 474  .02+  .09+    
190111 G96  .78+  .59+    190112 291  .24-  .35-    190114 474  .32-  .20-    
190111 G96  .74-  1.1+    190112 291  .07+  .14+    190114 474  .24+  .20+    

Ephemerides (geocentric):
Date (UTC) HH   RA              Dec         delta   r     elong  mag " sig PA
---- -- -- --  -------------   -----------  ------ ------ -----  --- ---- ---
2019 01 15 15  09 43 52.021   -09 51 12.72  .10807 1.0662 137.8 21.6 .083  15
2019 01 15 16  09 43 59.678   -09 49 17.72  .10823 1.0663 137.9 21.6 .080  14
2019 01 15 17  09 44 07.304   -09 47 22.95  .10839 1.0665 137.9 21.6 .078  13
2019 01 15 18  09 44 14.900   -09 45 28.41  .10855 1.0667 137.9 21.6 .075  12
2019 01 15 19  09 44 22.465   -09 43 34.08  .10871 1.0669 138.0 21.6 .072  11
2019 01 15 20  09 44 30.000   -09 41 39.98  .10888 1.0670 138.0 21.6 .070  10
2019 01 15 21  09 44 37.506   -09 39 46.09  .10904 1.0672 138.0 21.6 .067   9
2019 01 15 22  09 44 44.981   -09 37 52.43  .10920 1.0674 138.1 21.6 .064   8
2019 01 15 23  09 44 52.427   -09 35 58.98  .10936 1.0676 138.1 21.6 .061   7
2019 01 16 00  09 44 59.843   -09 34 05.76  .10952 1.0677 138.2 21.6 .058   5
2019 01 16 01  09 45 07.229   -09 32 12.75  .10968 1.0679 138.2 21.6 .055   4
2019 01 16 02  09 45 14.586   -09 30 19.96  .10984 1.0681 138.2 21.6 .051   2
2019 01 16 03  09 45 21.914   -09 28 27.38  .11001 1.0682 138.3 21.6 .048   0
2019 01 16 04  09 45 29.213   -09 26 35.02  .11017 1.0684 138.3 21.6 .045 177
2019 01 16 05  09 45 36.483   -09 24 42.88  .11033 1.0686 138.3 21.6 .042 174
2019 01 16 06  09 45 43.723   -09 22 50.95  .11049 1.0688 138.4 21.6 .039 171
2019 01 16 07  09 45 50.935   -09 20 59.23  .11065 1.0689 138.4 21.6 .036 167
2019 01 16 08  09 45 58.118   -09 19 07.73  .11082 1.0691 138.5 21.6 .033 162
2019 01 16 09  09 46 05.273   -09 17 16.44  .11098 1.0693 138.5 21.6 .031 157
2019 01 16 10  09 46 12.399   -09 15 25.36  .11114 1.0695 138.5 21.6 .028 150
2019 01 16 11  09 46 19.497   -09 13 34.49  .11130 1.0697 138.6 21.6 .026 142
2019 01 16 12  09 46 26.566   -09 11 43.83  .11147 1.0698 138.6 21.7 .025 133
2019 01 16 13  09 46 33.608   -09 09 53.39  .11163 1.0700 138.7 21.7 .024 123
2019 01 16 14  09 46 40.621   -09 08 03.15  .11179 1.0702 138.7 21.7 .024 112
2019 01 16 15  09 46 47.607   -09 06 13.11  .11196 1.0704 138.7 21.7 .025 102
2019 01 16 16  09 46 54.564   -09 04 23.29  .11212 1.0705 138.8 21.7 .027  92
2019 01 16 17  09 47 01.494   -09 02 33.67  .11228 1.0707 138.8 21.7 .029  84
2019 01 16 18  09 47 08.397   -09 00 44.26  .11245 1.0709 138.8 21.7 .032  76
2019 01 16 19  09 47 15.272   -08 58 55.06  .11261 1.0711 138.9 21.7 .035  70
2019 01 16 20  09 47 22.120   -08 57 06.05  .11277 1.0713 138.9 21.7 .039  65
2019 01 16 21  09 47 28.940   -08 55 17.26  .11294 1.0714 139.0 21.7 .042  61
2019 01 16 22  09 47 35.733   -08 53 28.66  .11310 1.0716 139.0 21.7 .047  57
2019 01 16 23  09 47 42.499   -08 51 40.27  .11326 1.0718 139.0 21.7 .051  54
2019 01 17 00  09 47 49.239   -08 49 52.09  .11343 1.0720 139.1 21.7 .056  52
2019 01 17 01  09 47 55.951   -08 48 04.10  .11359 1.0721 139.1 21.7 .060  49
2019 01 17 02  09 48 02.637   -08 46 16.31  .11376 1.0723 139.2 21.7 .065  48
2019 01 17 03  09 48 09.296   -08 44 28.73  .11392 1.0725 139.2 21.7 .070  46
2019 01 17 04  09 48 15.929   -08 42 41.34  .11408 1.0727 139.2 21.7 .075  44
2019 01 17 05  09 48 22.535   -08 40 54.16  .11425 1.0729 139.3 21.7 .080  43
2019 01 17 06  09 48 29.115   -08 39 07.17  .11441 1.0731 139.3 21.7 .086  42
2019 01 17 07  09 48 35.669   -08 37 20.38  .11458 1.0732 139.3 21.7 .091  41
2019 01 17 08  09 48 42.196   -08 35 33.78  .11474 1.0734 139.4 21.7 .096  40
2019 01 17 09  09 48 48.698   -08 33 47.39  .11491 1.0736 139.4 21.7 .102  39
2019 01 17 10  09 48 55.174   -08 32 01.18  .11507 1.0738 139.5 21.7 .107  38
2019 01 17 11  09 49 01.624   -08 30 15.18  .11524 1.0740 139.5 21.7 .113  37
2019 01 17 12  09 49 08.048   -08 28 29.37  .11540 1.0741 139.5 21.7 .119  36
2019 01 17 13  09 49 14.447   -08 26 43.75  .11557 1.0743 139.6 21.7 .125  36
2019 01 17 14  09 49 20.820   -08 24 58.32  .11573 1.0745 139.6 21.7 .131  35